Location: Newark
(48.6676°N, 6.1917°E)
Time: 06:40:44
(UTC+00:00)

N. Korean satellite - Pass Details

Date: 13 December 2019
Orbit: 454 x 508 km, 97.2° (Epoch: 20 January)

Event Time Altitude Azimuth Distance (km) Brightness Sun altitude
Rises 17:29:07 0° 202° (SSW) 2,599 10.8 -17.1°
Reaches altitude 10° 17:31:40 10° 220° (SW) 1,716 10.2 -17.5°
Maximum altitude 17:34:22 19° 268° (W) 1,245 9.6 -18.0°
Drops below altitude 10° 17:37:05 10° 315° (NW) 1,713 9.7 -18.4°
Sets 17:39:37 0° 334° (NNW) 2,594 10.4 -18.8°
